Torna al catalogo

STARLINK-31234

AttivoComunicazioniVLEO
NORAD 59043·PAYLOAD·🇺🇸 United States

Lanciato Feb 25, 2024 da Cape Canaveral Space Force Station

Loading…

Prossimi Passaggi (prossime 24 ore)

TLE

AggiornatoSource: CelesTrak SupGP

Epoca: Sep 14, 2026, 21:24 UTC

1 59043C 24038W   26257.89215278  .00051388  00000+0  18613-2 0  2574
2 59043  43.0040  35.2338 0001352 273.7144  33.5191 15.27552771    12

Traccia STARLINK-31234 in tempo reale con AllMySat

Download on the App Store